Location: Hamburg
(53.5554°N, 9.9941°E)
Time: 20:24:35
(UTC+01:00)

ISS - Pass Details

Date: 12 November 2017
Orbit: 402 x 407 km, 51.6° (Epoch: 22 November)

Event Time Altitude Azimuth Distance (km) Brightness Sun altitude
Exits shadow 05:52:31 32° 236° (SW) 720 -3.0 -15.9°
Maximum altitude 05:53:21 38° 200° (SSW) 627 -3.0 -15.8°
Drops below altitude 10° 05:56:24 10° 130° (SE) 1,454 -0.1 -15.3°
Sets 05:58:33 0° 122° (ESE) 2,311 1.3 -15.0°
